METEOR 2-5 DEB, 38280

Orbit data source: Space-Track

METEOR 2-5 DEB, 38280 is space debris in LEO originally from a launch on Wed, 31 Oct 1979 UTC launched from the Plesetsk Missile And Space Complex (PKMTR). Debris objects in space refer to the collection of defunct objects orbiting the Earth. Examples of debris include non-operational satellites, rocket bodies, and fragments generated from explosions, collisions, or faulty payload assembly.

Loading next visibility...
Identifier
38280, 1979-095CA
Orbit
LEO
Country
Flag of CISCIS
Related business
Manufacturer
Unknown
Mission
Spacecraft
Bus & Motor
Unknown
Mass
Unknown
Launch date (UTC)
1979-10-31 (47 years ago)
Launch vehicle
Unknown
Launch site
Plesetsk Missile And Space Complex (PKMTR)
Object type
Payload
Rocket body
Debris
Shape & HBR
Unknown shape, 0.1 m
Radar Cross Section
Small (<0.1 m²)

Expand to show TLE details & history
Last TLE update: 1 week ago

TLE from 1 week ago
0 METEOR 2-5 DEB
1 38280U 79095CA  26167.14039984  .00004544  00000-0  12295-2 0  9999
2 38280  81.1846 100.4673 0010689  27.3388 332.8364 14.47610952807358
Epoch: 2026-06-16T03:22Z
TLE epoch observation values (Epoch: 2026-06-16T03:22:10.546Z)
Latitude
0.00002°
Longitude
145.50665°
Altitude
729.648 km
Speed
7.494 km/s
True Right ascension
06h 41m 52s
True Declination
0° 00' 00"
Sunlit
Object was in daylight at epoch
Visualization orbit readout
Latitude
Unknown
Longitude
Unknown
Altitude
Unknown
Speed
Unknown
Apparent Right ascension
Unknown
Apparent Declination
Unknown
Sunlit
N/A
Visualization observer readout
Local Sidereal Time
08:39:07
Azimuth
Unknown
Elevation
Unknown
Doppler factor
Unknown
Orbital elements
Apogee altitude
738.188 km
Perigee altitude
722.991 km
Semi-major axis
7,108.726 km
Eccentricity
0.00107
Inclination
81.1846°
RAAN
100.4673°
Arg. of periapsis
27.3388°
True anomaly
332.78041°
Mean anomaly
332.8364°
Eccentric anomaly
332.80841°
Mean motion
3.62122 °/min
Orbital period
99.41 mins
BSTAR
0.0012295
Loading maneuver chart data...
Computing Atmospheric mass density...

Documentation

Showing up to 5 results
|